Regional Weather Roundup
Issued by NWS

Home | Current Version | Previous Version | Text Only | Print | Product List | Glossary Off
Versions: 1 2 3 4 5 6 7 8 9 10 11 12 13 14 15 16 17 18 19 20 21 22 23 24 25 26 27 28 29 30 31 32 33 34 35 36 37 38 39 40 41 42 43 44 45 46 47 48 49 50

903
ASUS43 KMKX 291221
RWRWI

WISCONSIN REGIONAL WEATHER ROUNDUP
NATIONAL WEATHER SERVICE MILWAUKEE/SULLIVAN WI
700 AM CDT SUN MAY 29 2016

NOTE: "FAIR" INDICATES FEW OR NO CLOUDS BELOW 12,000 FEET WITH NO
SIGNIFICANT WEATHER AND/OR OBSTRUCTIONS TO VISIBILITY.

WIZ001-002-006>008-014>016-023>028-291300-
NORTHWEST WISCONSIN

CITY           SKY/WX    TMP DP  RH WIND       PRES   REMARKS
SUPERIOR ARPT  CLOUDY    55  55 100 SW5       29.80S
6HR MIN TEMP:  51; 6HR MAX TEMP:  55;

ASHLAND        CLOUDY    57  55  93 SW5       29.80S
6HR MIN TEMP:  51; 6HR MAX TEMP:  57; 6HR PCP:  0.01;

HAYWARD        CLOUDY    59  57  93 SW3       29.83R FOG
6HR MIN TEMP:  58; 6HR MAX TEMP:  60; 6HR PCP:  0.02;

SIREN          CLOUDY    60  59  96 W7        29.84S
6HR MIN TEMP:  59; 6HR MAX TEMP:  60;

CUMBERLAND     CLOUDY    59  57  94 SW6       29.85S
RICE LAKE      CLOUDY    60  58  91 CALM      29.86S
6HR MIN TEMP:  60; 6HR MAX TEMP:  62; 6HR PCP:  0.01;

CHETEK         CLOUDY    60  60  97 W5        29.86R
6HR MIN TEMP:  60; 6HR MAX TEMP:  61;

LADYSMITH      CLOUDY    62  61  96 SW6       29.86R
6HR MIN TEMP:  61; 6HR MAX TEMP:  62;

EAU CLAIRE     CLOUDY    62  61  96 W6        29.85R
6HR MIN TEMP:  59; 6HR MAX TEMP:  62; 6HR PCP:  0.12;

MENOMONIE      CLOUDY    62  62  99 SW8       29.86S
6HR MIN TEMP:  61; 6HR MAX TEMP:  63;

NEW RICHMOND   CLOUDY    60  60  99 W7        29.87R
6HR MIN TEMP:  59; 6HR MAX TEMP:  61;

OSCEOLA        CLOUDY    61  61 100 W7        29.89R
6HR MIN TEMP:  60; 6HR MAX TEMP:  62; 6HR PCP:  0.02;

$$

WIZ003>005-009-010-017-018-291300-
NORTH CENTRAL WISCONSIN

CITY           SKY/WX    TMP DP  RH WIND       PRES   REMARKS
MANITOWISH WTR NOT AVBL
ARBOR VITAE    CLOUDY    62  60  95 SW7       29.83S
6HR MIN TEMP:  59; 6HR MAX TEMP:  62;

WOODRUFF       CLOUDY    62  60  95 SW7       29.83S
6HR MIN TEMP:  59; 6HR MAX TEMP:  62;

RHINELANDER    CLOUDY    61  58  90 SW8       29.85R
6HR MIN TEMP:  60; 6HR MAX TEMP:  64; 6HR PCP:  0.03;

EAGLE RIVER      N/A     59  58  97 SW7       29.84R
LAND O LAKES   CLOUDY    60  59  97 CALM      29.84R
6HR MIN TEMP:  60; 6HR MAX TEMP:  63;

PHILLIPS       CLOUDY    60  60 100 S7        29.82S
6HR MIN TEMP:  59; 6HR MAX TEMP:  60; 6HR PCP:  0.08;

TOMAHAWK       CLOUDY    59  58  96 CALM      29.84S
6HR MIN TEMP:  57; 6HR MAX TEMP:  63;

MEDFORD        LGT RAIN  59  59 100 SW3       29.85R
6HR MIN TEMP:  58; 6HR MAX TEMP:  61; 6HR PCP:  0.02;

MERRILL        PTSUNNY   63  63 100 CALM      29.85R
$$

WIZ029-030-035-036-043>047-291300-
CENTRAL WISCONSIN

CITY           SKY/WX    TMP DP  RH WIND       PRES   REMARKS
WAUSAU         CLOUDY    65  60  84 SW8       29.83R
6HR MIN TEMP:  64; 6HR MAX TEMP:  67;

MOSINEE        CLOUDY    63  63 100 S7        29.86R
MARSHFIELD     RAIN      62  60  93 SW9       29.85S FOG
6HR MIN TEMP:  60; 6HR MAX TEMP:  64; 6HR PCP: TRACE;

STEVENS POINT  PTSUNNY   61  60  96 SW3       29.86S
6HR MIN TEMP:  60; 6HR MAX TEMP:  63;

WAUPACA        PTSUNNY   64  64 100 S6        29.88R
6HR MIN TEMP:  62; 6HR MAX TEMP:  66; 6HR PCP:  0.01;

WAUTOMA        CLOUDY    63  61  94 S5        29.88S
6HR MIN TEMP:  61; 6HR MAX TEMP:  65;

WISC RAPIDS    PTSUNNY   64  58  80 SW8       29.87R
6HR MIN TEMP:  63; 6HR MAX TEMP:  65;

CAMP DOUGLAS   PTSUNNY   63  63 100 SW6       29.87R
6HR MIN TEMP:  60; 6HR MAX TEMP:  65;

$$

WIZ011>013-019>022-031-037>040-048>050-291300-
NORTHEAST WISCONSIN

CITY           SKY/WX    TMP DP  RH WIND       PRES   REMARKS
ANTIGO         CLOUDY    62  61  97 SW7       29.86R
6HR MIN TEMP:  60; 6HR MAX TEMP:  62;

SHAWANO        MOSUNNY   66  63  90 S5        29.86S
6HR MIN TEMP:  63; 6HR MAX TEMP:  66;

OCONTO         SUNNY    N/A N/A N/A S3        29.86S
STURGEON BAY   NOT AVBL
GREEN BAY      SUNNY     66  63  90 S8        29.87R
6HR MIN TEMP:  63; 6HR MAX TEMP:  66;

MANITOWOC      SUNNY     64  62  93 S10       29.90S
6HR MIN TEMP:  55; 6HR MAX TEMP:  64; 6HR PCP: TRACE;

APPLETON       MOSUNNY   64  63  94 SW8       29.87R
CLINTONVILLE   CLOUDY    63  61  94 SW7       29.86S
OSHKOSH        MOSUNNY   65  61  87 S10       29.88S
6HR MIN TEMP:  63; 6HR MAX TEMP:  65;

$$

WIZ032>034-041-042-053>061-291300-
SOUTHWEST WISCONSIN

CITY           SKY/WX    TMP DP  RH WIND       PRES   REMARKS
LA CROSSE      CLOUDY    65  60  84 W8        29.89R
6HR MIN TEMP:  63; 6HR MAX TEMP:  65; 6HR PCP: TRACE;

SPARTA         CLOUDY    62  61  95 W6        29.89R
6HR MIN TEMP:  62; 6HR MAX TEMP:  64;

VIROQUA        CLOUDY    62  62 100 W10       29.91R
6HR MIN TEMP:  61; 6HR MAX TEMP:  64;

BOSCOBEL       CLOUDY    65  62  90 SW9       29.91R
6HR MIN TEMP:  62; 6HR MAX TEMP:  66; 6HR PCP:  0.05;

PRAIRIE DU CHI CLOUDY    64  59  82 W10       29.93R
6HR MIN TEMP:  64; 6HR MAX TEMP:  65;

PLATTEVILLE    CLOUDY    64  61  91 SW10      29.94R
6HR MIN TEMP:  63; 6HR MAX TEMP:  65;

$$

WIZ056-057-062-063-064-067-068-291300-
SOUTH CENTRAL WISCONSIN

CITY           SKY/WX    TMP DP  RH WIND       PRES   REMARKS
REEDSBURG      CLOUDY    63  61  94 SW8       29.89R
6HR MIN TEMP:  60; 6HR MAX TEMP:  65;

BARABOO/DELLS  CLOUDY    63  58  84 SW9       29.89R
6HR MIN TEMP:  60; 6HR MAX TEMP:  64;

LONE ROCK      CLOUDY    65  60  84 W6        29.91R
6HR MIN TEMP:  60; 6HR MAX TEMP:  66; 6HR PCP: TRACE;

MINERAL POINT  CLOUDY    64  61  88 SW9       29.93R
MADISON        PTSUNNY   65  59  81 SW9       29.90R
6HR MIN TEMP:  63; 6HR MAX TEMP:  68;

MIDDLETON      CLOUDY    64  60  85 SW9       29.92R
6HR MIN TEMP:  63; 6HR MAX TEMP:  67;

WATERTOWN      SUNNY     65  62  90 S10       29.91S
6HR MIN TEMP:  61; 6HR MAX TEMP:  65;

MONROE         SUNNY     63  59  88 SW13      29.93R
JANESVILLE     SUNNY     68  63  83 SW12      29.93R
$$

WIZ051-052-058>065-066-070>072-291300-
SOUTHEAST WISCONSIN

CITY           SKY/WX    TMP DP  RH WIND       PRES   REMARKS
MILWAUKEE      MOSUNNY   66  62  87 SW10      29.94R
6HR MIN TEMP:  63; 6HR MAX TEMP:  66;

WAUKESHA       SUNNY     61  61 100 S8        29.93S
MILWAUKEE/TIMM SUNNY     64  61  88 S8        29.94R
RACINE         SUNNY     67  61  81 SW12      29.96S
6HR MIN TEMP:  63; 6HR MAX TEMP:  67; 6HR PCP: TRACE;

BURLINGTON     SUNNY     64  62  92 S8        29.95R
6HR MIN TEMP:  61; 6HR MAX TEMP:  64;

KENOSHA        SUNNY     66  62  87 S8        29.96R
6HR MIN TEMP:  63; 6HR MAX TEMP:  66;

FOND DU LAC    SUNNY     66  61  84 S8        29.89S
6HR MIN TEMP:  64; 6HR MAX TEMP:  66;

SHEBOYGAN      SUNNY     65  62  90 S6        29.91R
6HR MIN TEMP:  60; 6HR MAX TEMP:  65; 6HR PCP: TRACE;

WEST BEND      MOSUNNY   64  61  88 S5        29.92S
JUNEAU         SUNNY     64  60  87 S10       29.92S
6HR MIN TEMP:  61; 6HR MAX TEMP:  64;

$$

LSZ147-162-291300-
LAKE SUPERIOR

STATION/POSITION TIME  TEMP    WIND        PRES    WAVE
                       AIR SEA DIR/SP/G            HT/PER
                 (UTC) (F)     (DEG/KT/KT) (MB)    (FT/S)
W MID LAKE BUOY  1150   40 38  210/  2/  2 1008.8R   1
DEVILS ISLAND    1200   46     260/  9/ 11 1009.1R
SAXON HARBOR     1140   53      CALM  /  2 1008.5R
$$

LMZ867-665-643>646-291300-
LAKE MICHIGAN

STATION/POSITION TIME  TEMP    WIND        PRES    WAVE
                       AIR SEA DIR/SP/G            HT/PER
                 (UTC) (F)     (DEG/KT/KT) (MB)    (FT/S)
CHAMBERS ISLAND  1100   60     160/  5/  8 1011.2R
N MID LAKE BUOY  1150   51 46  190/ 16/ 17 1011.6R   3/ 5
NORTHPORT PIER   1100   53     150/  7/ 10 1011.5R
SISTER BAY       1105   54     160/ 11/ 14   N/A
ALGOMA LAKESHORE 1102             CALM    C1F1C2F2C3F3C4F4C5F5C6F6C7F7C8M1C9M2Ca!



USA.gov is the U.S. government's official web portal to all federal, state and local government web resources and services.